Location: Pic du Midi - T1M
(42.9366°N, 0.1426°E)
Time: 01:15:37
(UTC+01:00)

ISS - Visible Passes

Search period start: 18 June 2021 00:00
Search period end: 28 June 2021 00:00
Orbit: 417 x 422 km, 51.6° (Epoch: 17 June)

Date Brightness Start Highest point End Pass type
(mag) Time Alt. Az. Time Alt. Az. Time Alt. Az.
25 Jun -1.5 04:46:13 10° S 04:48:33 18° SE 04:50:53 10° E visible
26 Jun -1.1 04:00:35 10° SE 04:01:17 11° SE 04:02:00 10° ESE visible
27 Jun -3.2 04:46:55 10° SW 04:50:10 49° SE 04:53:25 10° ENE visible
